| time (UTC) | temp F | wind direction | speed MPH | gust MPH | rain 1hr in | rain 24hr in | rain mn in | humidity % | barometer mb |
| 20260505125017 | 36 | 158 | 3.0 | 7.0 | 0.00 | 0.00 | 0.00 | 83 | 1004.1 |
| 20260505124017 | 38 | 225 | 4.0 | 11.0 | 0.00 | 0.00 | 0.00 | 78 | 1004.2 |
| 20260505123037 | 42 | 293 | 4.0 | 11.0 | 0.00 | 0.00 | 0.00 | 75 | 1003.9 |
| 20260505122017 | 42 | 248 | 2.0 | 7.0 | 0.00 | 0.00 | 0.00 | 74 | 1003.7 |
| 20260505121017 | 41 | 293 | 5.0 | 12.0 | 0.00 | 0.00 | 0.00 | 72 | 1003.6 |
| 20260505120017 | 42 | 293 | 4.0 | 11.0 | 0.00 | 0.00 | 0.00 | 73 | 1003.4 |
| 20260505115017 | 42 | 293 | 4.0 | 9.0 | 0.00 | 0.00 | 0.00 | 74 | 1003.5 |
| 20260505114017 | 41 | 293 | 3.0 | 7.0 | 0.00 | 0.00 | 0.00 | 78 | 1003.5 |
| 20260505112017 | 37 | 225 | 2.0 | 8.0 | 0.00 | 0.00 | 0.00 | 85 | 1003.4 |
| 20260505111017 | 38 | 293 | 4.0 | 10.0 | 0.00 | 0.00 | 0.00 | 82 | 1003.4 |
| 20260505102016 | 40 | 293 | 2.0 | 7.0 | 0.00 | 0.00 | 0.00 | 78 | 1003.0 |
| 20260505101016 | 41 | 293 | 2.0 | 6.0 | 0.00 | 0.00 | 0.00 | 77 | 1003.0 |
| 20260505100037 | 41 | 293 | 3.0 | 9.0 | 0.00 | 0.00 | 0.00 | 78 | 1002.8 |
| 20260505095017 | 40 | 0 | 3.0 | 6.0 | 0.00 | 0.00 | 0.00 | 83 | 1002.7 |
| 20260505094016 | 40 | 293 | 2.0 | 11.0 | 0.00 | 0.00 | 0.00 | 79 | 1002.6 |
| 20260505093036 | 42 | 225 | 2.0 | 7.0 | 0.00 | 0.00 | 0.00 | 81 | 1002.5 |
| 20260505092017 | 41 | 293 | 3.0 | 8.0 | 0.00 | 0.00 | 0.00 | 81 | 1002.6 |
| 20260505091016 | 41 | 270 | 2.0 | 6.0 | 0.00 | 0.00 | 0.00 | 81 | 1002.7 |
| 20260505090016 | 39 | 0.0 | 2.0 | 0.00 | 0.00 | 0.00 | 86 | 1002.7 | |
| 20260505085016 | 38 | 225 | 4.0 | 11.0 | 0.00 | 0.00 | 0.00 | 85 | 1002.8 |
| 20260505084016 | 38 | 248 | 3.0 | 10.0 | 0.00 | 0.00 | 0.00 | 87 | 1002.8 |
| 20260505083017 | 39 | 293 | 2.0 | 8.0 | 0.00 | 0.00 | 0.00 | 87 | 1002.6 |
| 20260505082016 | 38 | 225 | 1.0 | 2.0 | 0.00 | 0.00 | 0.00 | 88 | 1002.4 |
| 20260505081016 | 39 | 248 | 1.0 | 4.0 | 0.00 | 0.00 | 0.00 | 86 | 1002.4 |
| 20260505080016 | 40 | 225 | 1.0 | 4.0 | 0.00 | 0.00 | 0.00 | 87 | 1002.2 |
| 20260505075016 | 39 | 180 | 2.0 | 6.0 | 0.00 | 0.00 | 0.00 | 86 | 1002.3 |
| 20260505074016 | 39 | 0.0 | 3.0 | 0.00 | 0.00 | 0.00 | 89 | 1002.2 | |
| 20260505073036 | 37 | 225 | 2.0 | 4.0 | 0.00 | 0.00 | 0.00 | 89 | 1002.1 |
| 20260505072016 | 38 | 135 | 2.0 | 6.0 | 0.00 | 0.00 | 0.00 | 90 | 1002.1 |
| 20260505071016 | 35 | 158 | 1.0 | 3.0 | 0.00 | 0.00 | 0.00 | 93 | 1002.1 |
| 20260505070016 | 34 | 0.0 | 2.0 | 0.00 | 0.00 | 0.00 | 92 | 1002.1 | |
| 20260505065016 | 34 | 293 | 2.0 | 6.0 | 0.00 | 0.00 | 0.00 | 91 | 1002.2 |
| 20260505064016 | 35 | 293 | 3.0 | 11.0 | 0.00 | 0.00 | 0.00 | 89 | 1002.1 |
| 20260505063016 | 38 | 225 | 2.0 | 7.0 | 0.00 | 0.00 | 0.00 | 88 | 1001.9 |
| 20260505062016 | 37 | 270 | 2.0 | 9.0 | 0.00 | 0.00 | 0.00 | 88 | 1001.8 |
| 20260505061036 | 39 | 248 | 1.0 | 4.0 | 0.00 | 0.00 | 0.00 | 90 | 1001.7 |
| 20260505060016 | 39 | 135 | 1.0 | 4.0 | 0.00 | 0.00 | 0.00 | 92 | 1001.6 |
| 20260505055016 | 36 | 225 | 1.0 | 4.0 | 0.00 | 0.00 | 0.00 | 94 | 1001.6 |
| 20260505054016 | 34 | 158 | 1.0 | 4.0 | 0.00 | 0.00 | 0.00 | 95 | 1001.5 |
| 20260505053016 | 34 | 248 | 2.0 | 5.0 | 0.00 | 0.00 | 0.00 | 96 | 1001.7 |
| 20260505052016 | 33 | 225 | 1.0 | 3.0 | 0.00 | 0.00 | 0.00 | 96 | 1001.7 |
| 20260505051016 | 33 | 0.0 | 0.0 | 0.00 | 0.00 | 0.00 | 96 | 1001.6 | |
| 20260505041016 | 33 | 45 | 1.0 | 4.0 | 0.00 | 0.00 | 0.00 | 96 | 1001.6 |
| 20260505040016 | 33 | 135 | 1.0 | 4.0 | 0.00 | 0.00 | 0.00 | 96 | 1001.5 |
| 20260505035016 | 33 | 135 | 1.0 | 5.0 | 0.00 | 0.00 | 0.00 | 96 | 1001.3 |
| 20260505034016 | 33 | 0.0 | 1.0 | 0.00 | 0.00 | 0.00 | 96 | 1001.3 | |
| 20260505033016 | 33 | 0.0 | 1.0 | 0.00 | 0.00 | 0.00 | 96 | 1001.2 | |
| 20260505032016 | 33 | 0.0 | 1.0 | 0.00 | 0.00 | 0.00 | 96 | 1001.2 | |
| 20260505031016 | 33 | 0.0 | 1.0 | 0.00 | 0.00 | 0.00 | 96 | 1001.3 | |
| 20260505030016 | 33 | 0.0 | 1.0 | 0.00 | 0.00 | 0.00 | 95 | 1001.3 | |
| 20260505025015 | 33 | 293 | 1.0 | 3.0 | 0.00 | 0.00 | 0.00 | 95 | 1001.5 |
| 20260505024036 | 33 | 293 | 2.0 | 7.0 | 0.00 | 0.00 | 0.00 | 95 | 1001.5 |
| 20260505023036 | 33 | 293 | 1.0 | 4.0 | 0.00 | 0.00 | 0.00 | 95 | 1001.4 |
| 20260505022015 | 33 | 0.0 | 3.0 | 0.00 | 0.00 | 0.00 | 95 | 1001.0 | |
| 20260505021016 | 33 | 248 | 2.0 | 6.0 | 0.00 | 0.00 | 0.00 | 95 | 1001.0 |
| 20260505020016 | 33 | 248 | 1.0 | 2.0 | 0.00 | 0.00 | 0.00 | 94 | 1000.8 |
| 20260505015015 | 33 | 0.0 | 1.0 | 0.00 | 0.00 | 0.00 | 94 | 1000.9 | |
| 20260505014036 | 33 | 0.0 | 1.0 | 0.00 | 0.00 | 0.00 | 94 | 1000.7 | |
| 20260505013015 | 33 | 135 | 1.0 | 2.0 | 0.00 | 0.00 | 0.00 | 93 | 1000.7 |
| 20260505012016 | 33 | 0.0 | 1.0 | 0.00 | 0.00 | 0.00 | 93 | 1000.6 | |
| 20260505011016 | 34 | 0.0 | 1.0 | 0.00 | 0.00 | 0.00 | 93 | 1000.5 | |
| 20260505010035 | 34 | 0.0 | 1.0 | 0.00 | 0.00 | 0.00 | 92 | 1000.5 | |
| 20260505005016 | 34 | 338 | 1.0 | 4.0 | 0.00 | 0.00 | 0.00 | 92 | 1000.7 |
| 20260505004015 | 35 | 23 | 1.0 | 4.0 | 0.00 | 0.00 | 0.00 | 93 | 1000.6 |
| 20260505003016 | 34 | 0 | 2.0 | 6.0 | 0.00 | 0.00 | 0.00 | 94 | 1000.6 |
| 20260505002036 | 33 | 293 | 1.0 | 4.0 | 0.00 | 0.00 | 0.00 | 95 | 1000.5 |
| 20260505001056 | 33 | 0.0 | 2.0 | 0.00 | 0.00 | 0.00 | 95 | 1000.4 | |
| 20260505000015 | 33 | 270 | 1.0 | 1.0 | 0.00 | 0.00 | 0.00 | 95 | 1000.4 |
| 20260504235015 | 32 | 0.0 | 1.0 | 0.00 | 0.00 | 0.00 | 94 | 1000.3 | |
| 20260504234035 | 32 | 293 | 1.0 | 1.0 | 0.00 | 0.00 | 0.00 | 94 | 1000.2 |
| 20260504233015 | 32 | 0.0 | 0.0 | 0.00 | 0.00 | 0.00 | 94 | 1000.1 | |
| 20260504232015 | 32 | 0.0 | 0.0 | 0.00 | 0.00 | 0.00 | 93 | 1000.2 | |
| 20260504231015 | 32 | 0.0 | 0.0 | 0.00 | 0.00 | 0.00 | 93 | 1000.3 | |
| 20260504230015 | 32 | 0.0 | 0.0 | 0.00 | 0.00 | 0.00 | 92 | 1000.2 | |
| 20260504225015 | 33 | 0.0 | 0.0 | 0.00 | 0.00 | 0.00 | 91 | 1000.3 | |
| 20260504224055 | 33 | 0.0 | 0.0 | 0.00 | 0.00 | 0.00 | 91 | 1000.3 | |
| 20260504223017 | 33 | 0.0 | 1.0 | 0.00 | 0.00 | 0.00 | 91 | 1000.3 | |
| 20260504222037 | 34 | 0.0 | 1.0 | 0.00 | 0.00 | 0.00 | 90 | 1000.3 | |
| 20260504221017 | 35 | 0.0 | 1.0 | 0.00 | 0.00 | 0.00 | 90 | 1000.3 | |
| 20260504220017 | 35 | 0.0 | 1.0 | 0.00 | 0.00 | 0.00 | 90 | 1000.2 | |
| 20260504215016 | 35 | 0.0 | 1.0 | 0.00 | 0.00 | 0.00 | 90 | 1000.2 | |
| 20260504214015 | 34 | 293 | 1.0 | 4.0 | 0.00 | 0.00 | 0.00 | 92 | 1000.2 |
| 20260504213016 | 34 | 0.0 | 1.0 | 0.00 | 0.00 | 0.00 | 90 | 1000.0 | |
| 20260504212036 | 34 | 0.0 | 1.0 | 0.00 | 0.00 | 0.00 | 89 | 1000.1 | |
| 20260504211015 | 34 | 0.0 | 1.0 | 0.00 | 0.00 | 0.00 | 90 | 1000.0 | |
| 20260504210016 | 34 | 0.0 | 2.0 | 0.00 | 0.00 | 0.00 | 90 | 999.9 | |
| 20260504205016 | 35 | 338 | 1.0 | 3.0 | 0.00 | 0.00 | 0.00 | 91 | 999.8 |
| 20260504204016 | 35 | 0 | 1.0 | 2.0 | 0.00 | 0.00 | 0.00 | 93 | 999.6 |
| 20260504203015 | 35 | 0.0 | 1.0 | 0.00 | 0.00 | 0.00 | 93 | 999.6 | |
| 20260504202015 | 35 | 0.0 | 2.0 | 0.00 | 0.00 | 0.00 | 94 | 999.5 | |
| 20260504201015 | 36 | 0.0 | 0.0 | 0.00 | 0.00 | 0.00 | 95 | 999.5 | |
| 20260504200015 | 36 | 0.0 | 0.0 | 0.00 | 0.00 | 0.00 | 94 | 999.5 | |
| 20260504195015 | 35 | 0.0 | 0.0 | 0.00 | 0.00 | 0.00 | 95 | 999.4 | |
| 20260504194015 | 35 | 0.0 | 0.0 | 0.00 | 0.00 | 0.00 | 94 | 999.3 | |
| 20260504193015 | 36 | 0.0 | 1.0 | 0.00 | 0.00 | 0.00 | 94 | 999.2 | |
| 20260504192015 | 36 | 0.0 | 1.0 | 0.00 | 0.00 | 0.00 | 93 | 999.1 | |
| 20260504191015 | 36 | 0.0 | 1.0 | 0.00 | 0.00 | 0.00 | 93 | 999.0 | |
| 20260504190015 | 36 | 0.0 | 1.0 | 0.00 | 0.00 | 0.00 | 93 | 998.9 | |
| 20260504185035 | 36 | 0.0 | 0.0 | 0.00 | 0.00 | 0.00 | 92 | 998.8 | |
| 20260504184015 | 37 | 0.0 | 2.0 | 0.00 | 0.00 | 0.00 | 92 | 998.8 | |
| 20260504183017 | 37 | 0 | 1.0 | 3.0 | 0.00 | 0.00 | 0.00 | 92 | 998.7 |
| 20260504182037 | 37 | 293 | 1.0 | 3.0 | 0.00 | 0.00 | 0.00 | 92 | 998.6 |
| 20260504181037 | 37 | 293 | 3.0 | 7.0 | 0.00 | 0.00 | 0.00 | 93 | 998.5 |
| 20260504180017 | 37 | 293 | 2.0 | 5.0 | 0.00 | 0.00 | 0.00 | 93 | 998.4 |
| 20260504175017 | 37 | 338 | 2.0 | 6.0 | 0.00 | 0.00 | 0.00 | 93 | 998.3 |
| 20260504174017 | 37 | 293 | 2.0 | 6.0 | 0.00 | 0.00 | 0.00 | 93 | 998.2 |
| 20260504173017 | 37 | 270 | 4.0 | 11.0 | 0.00 | 0.00 | 0.00 | 94 | 998.0 |
| 20260504172057 | 36 | 0 | 2.0 | 5.0 | 0.00 | 0.00 | 0.00 | 94 | 997.9 |
| 20260504171017 | 36 | 0 | 2.0 | 4.0 | 0.00 | 0.00 | 0.00 | 94 | 997.7 |
| 20260504151017 | 34 | 225 | 2.0 | 6.0 | 0.00 | 0.00 | 0.00 | 93 | 996.6 |
| 20260504141037 | 39 | 225 | 2.0 | 5.0 | 0.00 | 0.00 | 0.00 | 90 | 997.2 |